Wind_Gust
29 28 28 26 23 25 26 22 19 17 16 18 18 17 16 16 15 14 15 14 15 15 15 15 16 15 15 15 15 14 14 13 13 13 13 13 12 12 13 11 12 12 11 11 12 13 15 15 16 17 18 17 16 15 14 12 10 11 10 11 11 9 9 15 16 16 12 11 13 17 18 18 19 18 20 19 19 16 14 19 22 19 19 18 18
27 28 27 27 26 26 25 19 20 20 17 18 17 19 17 16 14 15 14 14 15 16 16 15 15 15 14 15 15 16 16 15 14 13 14 13 12 11 12 13 12 13 12 13 12 13 12 15 17 16 16 17 14 16 16 14 13 15 14 12 12 8 8 9 18 14 14 12 14 15 20 18 18 19 18 19 19 17 19 20 21 21 19 19 20
27 27 26 26 25 25 24 22 23 22 21 20 19 20 19 17 16 15 15 15 15 15 15 15 15 16 15 14 15 16 17 17 14 14 14 15 14 11 10 11 12 12 13 14 14 13 14 16 17 14 13 14 14 13 13 14 14 13 12 11 10 8 9 7 14 16 15 15 13 17 17 18 16 20 19 19 19 20 19 20 21 22 20 17 19
26 25 24 24 25 24 25 24 24 23 22 22 20 19 19 17 16 16 15 15 16 14 14 15 15 14 15 14 14 15 17 16 15 16 17 15 14 14 13 13 13 13 13 16 18 15 14 14 14 14 13 12 11 11 9 7 6 10 9 11 7 8 6 7 9 9 17 14 15 18 19 16 18 17 19 20 20 20 19 19 19 20 19 19 17
23 24 23 25 23 26 25 23 24 25 24 22 20 19 18 18 17 17 15 15 14 13 14 14 15 16 14 16 15 15 16 17 16 16 14 13 13 14 15 15 14 13 12 13 12 16 15 14 15 14 13 11 11 11 11 8 12 10 11 11 11 12 10 10 11 11 11 14 13 15 16 17 17 17 19 21 21 20 19 20 20 19 19 16 14
19 22 21 13 18 19 22 23 23 24 24 22 20 19 20 18 17 16 17 18 16 15 15 15 15 16 15 15 15 15 16 16 16 15 15 13 12 13 13 13 13 12 12 12 14 14 13 14 14 14 12 11 11 9 10 11 7 8 8 11 13 16 6 10 10 10 12 15 15 16 13 16 17 17 18 19 19 21 20 20 19 19 18 18 17
22 24 24 21 21 20 24 22 24 21 20 20 20 20 19 17 16 16 15 16 16 15 15 16 14 14 16 13 15 15 15 15 15 15 15 14 14 14 13 13 13 13 12 12 12 12 12 13 11 11 11 10 10 9 8 6 6 6 7 8 12 14 10 11 12 12 11 12 14 15 15 15 15 17 18 17 18 19 17 18 18 19 19 18 19
22 21 25 22 20 22 19 19 20 21 20 20 20 20 19 18 16 15 14 14 14 16 16 15 14 14 14 13 13 13 13 14 15 15 15 14 14 13 13 12 13 12 11 12 11 11 10 11 10 10 10 10 9 9 9 9 9 8 9 8 7 6 9 9 9 11 12 12 13 14 15 15 18 13 18 18 19 20 20 18 19 18 18 18 18
19 17 21 20 22 21 20 22 19 21 22 21 21 20 20 18 17 16 15 13 12 13 14 15 14 13 14 13 13 13 14 14 18 17 14 17 14 14 14 15 14 14 12 12 11 11 11 11 10 11 16 11 11 11 9 9 11 8 8 7 7 9 9 10 10 11 12 12 14 14 16 19 18 15 19 19 17 18 18 16 20 18 19 20 21
13 17 21 22 22 23 25 21 21 21 21 21 22 21 19 18 17 16 15 14 11 12 13 13 13 12 15 13 14 15 18 15 15 15 14 15 13 15 12 12 12 13 12 13 11 10 11 11 14 12 9 9 8 8 8 9 8 9 12 8 8 8 8 9 11 11 12 12 13 13 15 17 17 15 16 16 16 15 17 19 21 20 19 21 20
12 12 19 19 21 22 22 23 22 21 20 20 20 20 20 18 16 15 14 13 11 10 10 13 11 13 15 15 19 18 16 17 17 15 16 16 17 11 13 11 10 10 10 11 11 12 11 12 13 11 9 5 8 5 3 3 5 8 9 8 6 11 11 11 10 10 13 13 13 14 15 15 15 15 17 18 17 16 17 20 21 20 23 23 26
16 14 14 15 16 19 20 22 22 20 20 20 20 20 19 18 18 16 15 14 11 11 11 12 14 16 20 21 18 17 16 16 15 16 15 16 12 15 10 10 10 10 10 11 11 10 11 10 11 13 12 12 13 14 9 5 3 2 3 5 8 8 3 8 12 13 13 15 16 16 15 15 14 13 16 17 16 15 18 20 21 22 21 23 24
19 20 17 18 19 17 18 20 21 20 21 22 20 18 19 20 17 16 16 14 14 15 13 14 16 17 17 18 17 15 14 13 14 13 13 13 15 13 12 7 9 10 9 10 10 8 10 11 11 12 12 9 9 13 14 15 7 5 3 4 7 7 10 8 6 11 14 17 17 18 17 16 16 16 14 15 13 16 16 19 20 20 20 23 24
20 20 17 16 19 18 16 19 23 22 18 17 15 14 16 17 16 15 15 15 15 15 15 16 16 16 15 15 14 12 12 12 11 11 10 11 11 10 12 11 9 9 10 10 10 10 11 11 13 13 15 14 13 12 13 13 15 14 14 14 15 14 11 12 12 9 8 14 17 20 19 16 19 16 14 14 16 19 19 20 19 21 20 23 15
21 19 18 17 16 15 17 16 18 18 17 16 14 14 15 14 13 12 13 14 14 13 11 13 14 13 14 12 13 11 12 11 11 12 12 11 11 8 12 10 12 12 12 12 12 12 12 12 13 14 14 15 23 22 22 20 20 19 18 17 18 19 18 17 16 16 15 16 17 20 18 19 18 18 17 16 17 18 19 19 19 19 19 8 12
19 18 19 19 19 17 17 18 19 18 17 17 18 15 12 12 11 10 12 12 12 11 10 9 11 11 13 13 11 13 12 12 13 15 15 14 14 14 13 12 12 12 11 10 11 12 13 13 14 16 15 16 10 8 10 15 16 19 18 20 20 17 19 9 8 7 12 15 16 12 11 10 5 11 12 13 15 17 17 18 18 19 21 17 20
21 19 19 18 18 18 18 19 20 19 16 16 18 16 14 12 12 12 13 13 12 12 11 11 11 12 12 10 11 11 13 14 19 20 19 20 13 14 12 14 13 11 12 10 12 11 12 13 13 15 14 10 8 7 8 7 14 19 17 18 20 19 24 14 6 3 4 3 5 6 8 9 7 5 7 7 11 11 18 22 24 21 22 23 24
19 18 19 18 18 18 18 18 20 20 18 18 16 13 15 15 15 12 14 15 15 13 11 12 13 13 12 11 13 15 16 18 22 23 21 20 14 14 11 11 10 11 9 9 12 13 16 11 10 11 14 12 11 12 14 12 16 20 20 19 19 20 23 17 10 9 4 3 3 4 6 8 8 8 8 8 8 7 18 24 24 24 26 24 24
19 19 18 18 19 19 19 19 19 18 18 17 15 15 15 14 13 14 14 14 14 13 12 12 13 13 13 13 9 15 17 16 19 19 18 16 18 13 12 11 9 11 9 10 8 11 10 14 16 15 15 11 12 13 14 14 16 18 20 21 22 21 20 20 17 14 12 13 12 11 12 8 13 16 14 10 9 9 18 21 22 24 26 24 23
19 19 19 19 18 19 18 18 18 18 17 16 16 17 16 15 14 12 11 12 13 11 10 12 12 10 9 11 13 14 15 16 16 14 15 16 18 16 14 13 12 12 12 14 15 11 12 12 15 14 13 13 12 12 12 12 14 18 20 20 21 19 20 20 19 19 17 18 19 15 14 12 12 14 12 12 13 15 16 17 18 21 24 22 22
19 19 19 19 20 20 19 19 20 18 16 16 16 16 16 14 12 11 11 11 11 10 9 9 10 8 7 8 10 10 11 12 13 12 13 15 16 14 14 15 14 14 13 13 12 14 13 14 16 12 13 12 10 10 10 11 7 14 18 20 19 16 16 20 20 14 20 19 20 21 20 19 19 19 19 18 14 14 14 14 13 13 18 23 23
17 18 19 20 20 20 19 18 17 16 15 14 14 14 13 12 11 10 9 9 9 8 7 8 9 9 8 9 9 11 10 8 11 10 10 11 12 14 11 11 10 10 12 10 9 11 11 10 14 8 7 6 7 8 8 8 10 14 19 13 16 17 19 18 20 21 22 20 24 24 23 22 23 22 19 17 14 12 12 11 8 5 7 10 11
17 17 17 18 18 18 17 16 15 15 14 13 13 13 12 12 10 9 9 9 8 9 8 8 9 9 8 10 10 11 13 13 8 11 8 7 7 7 7 8 8 13 12 11 11 14 13 10 14 11 13 12 10 7 7 9 9 16 14 13 14 14 12 18 17 19 19 23 23 23 23 23 21 18 17 19 13 10 11 11 11 11 11 12 12
17 17 17 18 18 17 16 16 15 14 13 12 13 12 11 9 9 8 7 7 10 9 8 9 9 9 9 9 8 9 9 14 8 7 10 8 6 5 3 3 6 11 13 14 14 15 13 15 15 13 12 13 14 14 11 10 16 14 15 14 11 8 15 18 17 18 16 18 19 19 20 22 24 23 21 19 15 13 12 12 13 12 13 14 15
16 16 17 17 16 16 16 17 16 15 14 13 12 12 11 10 9 9 7 8 8 7 7 7 6 7 6 6 8 9 9 9 13 11 7 9 9 9 7 5 7 6 12 13 12 13 11 10 10 11 12 13 15 16 14 16 21 17 16 15 10 15 17 17 18 17 20 21 24 25 25 22 22 21 14 12 12 12 12 12 13 13 13 15 15
15 15 15 16 18 17 16 16 17 16 14 14 14 13 13 12 12 10 10 9 9 8 8 8 8 8 7 7 7 8 7 7 10 12 8 8 8 9 9 9 10 12 13 13 10 11 11 11 14 16 17 17 18 16 16 15 7 10 11 11 14 17 18 19 18 20 22 25 25 26 25 23 21 15 15 16 15 14 13 14 15 15 15 15 15
13 13 13 13 14 16 15 14 15 16 15 15 15 15 14 13 14 14 14 13 11 10 9 10 9 10 8 8 8 7 8 10 14 15 17 17 16 11 11 13 14 13 17 14 11 13 13 12 16 15 17 18 20 18 16 15 19 19 19 18 18 17 15 16 19 20 22 24 24 24 21 18 14 16 16 15 14 12 11 11 12 12 13 15 15
13 13 13 14 14 14 15 7 12 16 17 18 18 17 16 15 16 17 17 16 15 13 13 13 13 13 12 12 11 9 11 19 19 18 17 18 17 17 16 16 15 15 16 18 20 19 21 12 17 20 19 19 19 17 18 19 20 18 17 18 19 19 9 7 9 20 21 22 24 23 12 12 14 14 15 14 14 12 12 11 11 13 12 13 12
13 14 14 15 15 14 15 15 15 14 14 16 19 20 18 16 15 17 18 16 15 15 16 15 16 14 13 13 11 10 11 16 16 7 13 6 10 16 17 18 18 17 13 13 19 20 19 19 16 15 15 11 11 15 15 16 13 16 15 16 19 19 17 15 16 16 17 19 20 20 15 14 12 14 15 16 14 12 12 12 11 13 11 9 10
13 14 15 14 14 14 13 14 13 13 12 13 15 16 8 10 13 16 15 10 10 9 7 14 15 16 15 15 17 15 15 17 12 13 11 10 9 8 9 11 12 15 15 17 14 16 16 13 13 11 11 11 11 11 12 12 12 13 14 10 15 19 19 16 14 17 17 14 15 12 12 9 11 13 12 12 14 13 10 8 11 11 11 10 9
12 13 14 15 14 11 12 12 11 11 11 9 10 11 15 14 9 12 10 6 7 8 8 7 9 10 14 15 13 15 14 13 13 12 11 10 10 9 9 8 9 9 9 12 13 14 14 12 10 9 9 12 10 11 11 13 13 13 13 14 18 17 12 11 11 10 11 12 10 8 7 9 10 12 14 14 16 15 13 10 10 9 9 10 9
13 13 13 13 13 13 12 12 10 11 11 10 10 8 15 16 15 6 5 9 7 6 7 7 4 4 5 7 10 12 12 13 12 11 10 9 10 11 9 9 8 9 8 9 12 13 10 10 11 10 10 10 11 13 15 15 14 14 15 14 14 12 13 13 10 8 9 10 11 8 6 8 9 10 11 10 10 11 10 7 8 7 7 7 8
18 15 12 10 10 10 12 12 10 10 9 10 9 10 11 11 19 18 13 5 3 2 4 8 7 4 3 4 4 3 5 8 9 9 9 10 11 11 10 11 12 9 5 7 12 12 10 11 11 15 14 12 14 15 17 17 15 14 14 14 13 12 12 12 5 10 6 7 6 5 8 10 9 10 9 9 9 10 8 8 6 6 6 6 7
13 16 15 17 13 11 11 11 10 9 10 11 12 11 11 12 12 11 17 15 14 8 4 6 7 11 5 6 6 6 7 7 8 8 10 10 12 13 10 13 9 10 9 12 12 13 14 18 17 17 17 16 15 12 12 15 15 15 14 16 17 15 12 12 12 8 6 4 4 7 9 10 9 10 11 12 11 9 8 5 4 6 7 8 9
17 11 4 11 11 9 9 10 10 9 7 7 8 7 9 8 8 9 10 13 16 15 16 12 8 5 13 8 5 2 2 2 6 9 11 12 14 17 15 8 7 7 10 12 17 17 17 16 17 17 18 16 13 12 12 16 17 16 14 14 17 16 9 9 8 8 7 7 9 11 10 8 8 7 8 9 8 7 6 7 8 6 5 5 4
10 10 12 11 9 11 11 11 13 12 11 9 8 9 9 9 8 8 8 9 10 10 12 16 21 8 12 6 8 6 8 4 4 6 8 10 14 14 15 17 14 16 16 16 16 17 16 16 16 16 17 16 16 13 15 14 16 16 17 16 14 14 12 8 4 6 7 10 10 10 8 6 5 6 5 6 6 9 8 7 5 5 2 3 4
13 13 13 12 11 11 11 10 14 12 8 15 13 8 8 8 10 9 9 10 10 13 11 14 15 17 14 13 14 11 8 6 8 7 7 9 12 16 18 17 16 17 17 17 17 16 16 16 16 16 16 16 16 16 13 14 15 15 11 13 13 10 11 12 9 7 12 16 13 9 7 7 6 4 5 6 5 6 6 5 5 4 6 8 6
9 13 15 17 14 8 6 10 12 8 16 17 10 8 8 8 8 9 9 8 11 7 10 14 7 15 17 17 8 9 10 8 8 5 2 4 13 17 17 16 18 18 16 17 17 16 16 16 16 16 16 15 16 16 14 14 11 11 11 9 9 12 8 12 8 10 12 17 15 11 9 8 10 9 9 10 8 9 5 3 5 7 5 6 11
15 10 7 4 6 17 11 8 9 12 10 7 11 10 8 8 9 10 9 9 7 7 10 12 16 17 17 17 17 13 13 17 16 16 16 16 17 17 18 18 19 16 17 16 16 16 16 16 16 16 15 15 15 15 14 11 10 10 10 9 8 7 7 9 10 10 10 11 11 11 12 11 10 8 7 6 5 4 4 5 8 7 12 15 9
11 16 10 4 10 9 9 8 9 8 9 9 9 9 8 7 8 5 7 7 5 6 7 11 15 16 17 17 17 19 15 15 15 15 15 15 16 17 18 16 16 18 16 17 16 16 16 16 16 15 15 16 16 15 15 12 12 10 9 9 10 11 12 11 12 13 13 12 12 12 9 6 4 5 8 9 6 5 7 5 6 6 12 11 8
9 10 10 8 6 11 7 9 9 12 10 8 6 8 10 8 8 9 7 6 6 6 8 13 14 15 15 16 13 13 16 16 15 14 14 15 14 14 16 15 15 15 17 15 15 16 16 16 14 14 14 14 14 12 13 12 10 10 11 11 13 13 14 13 13 13 13 11 10 7 7 7 6 5 7 7 4 5 5 7 9 7 6 4 5
9 9 12 16 14 10 8 7 9 11 7 7 7 7 8 7 8 9 8 5 6 7 7 10 12 15 12 10 12 14 11 16 15 15 14 16 16 16 13 16 17 17 15 16 17 14 14 14 14 15 15 12 11 11 11 11 11 12 13 12 12 12 12 12 10 8 8 8 7 9 10 10 9 8 7 5 5 4 11 18 13 8 8 8 9
11 10 9 11 11 13 12 7 9 7 8 7 4 3 7 6 9 8 8 9 8 7 6 5 8 10 11 2 13 11 15 15 10 15 15 12 16 12 13 13 13 17 16 16 16 14 13 12 12 13 13 13 12 10 11 12 12 11 11 11 12 11 11 11 10 10 10 11 11 9 7 7 7 7 6 5 7 10 10 5 7 7 5 2 5
8 8 8 9 11 12 10 10 7 7 8 12 8 7 7 8 6 6 8 8 6 6 5 4 4 7 5 10 11 11 16 15 15 15 15 13 12 13 14 14 14 13 15 13 13 12 12 13 13 12 11 12 13 11 12 12 12 12 11 12 12 11 12 12 11 11 10 10 10 9 9 8 7 6 6 9 9 4 7 6 6 9 10 11 9
11 9 8 9 9 14 10 7 7 9 9 10 11 10 10 9 8 8 7 7 8 7 5 4 7 4 9 8 12 12 13 14 11 11 10 11 10 11 12 11 11 11 12 12 12 11 11 13 11 9 9 11 12 12 12 12 11 11 12 11 10 11 11 10 9 9 8 6 8 8 7 6 5 7 9 10 4 7 8 8 11 8 8 7 7
10 9 8 9 7 8 12 9 8 9 11 9 7 8 9 8 8 7 7 8 8 8 8 6 6 5 7 8 9 11 10 12 12 12 12 9 10 10 10 10 10 11 12 12 11 10 12 11 11 10 10 11 12 12 12 11 12 12 11 11 12 11 9 8 7 7 7 6 7 7 6 6 8 6 7 12 10 11 8 7 6 9 9 6 5
9 10 7 9 9 8 13 9 10 10 9 8 8 8 8 8 8 8 8 9 9 8 8 8 6 7 6 6 7 8 10 8 9 9 8 12 9 12 9 9 9 9 9 9 8 10 10 11 10 10 10 10 10 11 10 10 9 10 10 11 11 12 12 15 8 3 4 3 6 8 10 8 8 7 5 7 6 6 4 4 5 3 5 6 6
10 11 10 9 9 12 13 11 16 6 9 8 8 9 9 9 10 10 12 13 12 10 9 9 10 10 9 9 9 8 9 8 8 10 8 9 9 8 8 6 7 8 8 9 9 10 10 10 9 9 9 9 8 9 9 9 9 10 10 12 13 14 16 15 9 11 14 13 11 9 10 14 15 15 12 7 7 7 7 7 7 7 6 7 7
12 12 11 10 11 11 9 9 11 15 12 13 11 12 11 11 10 11 11 11 10 10 10 9 9 9 8 8 8 10 10 9 8 9 9 10 7 8 8 7 5 7 9 9 9 9 9 10 9 9 8 9 10 10 11 12 12 12 12 11 13 15 13 15 12 13 16 13 4 4 8 9 10 6 6 9 11 12 13 8 7 7 7 5 6
13 12 11 11 10 11 11 9 11 12 11 11 14 13 11 12 12 11 10 10 11 10 8 7 7 8 9 9 8 8 8 9 8 8 8 7 8 7 8 7 7 7 8 8 9 8 8 8 7 9 10 10 11 12 13 13 13 13 11 13 13 14 15 14 10 14 15 13 14 9 9 7 8 10 11 10 5 5 7 11 12 10 10 8 8
13 14 13 12 12 13 11 11 11 12 10 13 13 12 13 11 12 11 11 11 11 10 9 9 9 7 7 8 8 8 8 9 10 9 11 9 6 7 7 7 6 6 7 6 7 9 8 8 9 9 10 10 12 13 13 12 12 12 11 11 13 13 14 13 13 12 15 10 14 12 10 8 6 8 10 12 13 14 13 10 8 8 11 10 9
Wind_Speed
17 16 14 14 14 14 13 12 11 9 9 11 9 9 8 9 7 7 7 6 7 7 7 7 7 7 7 6 6 6 6 6 5 5 5 5 4 4 5 4 4 5 4 4 4 4 6 6 7 7 7 8 7 6 5 4 4 5 4 4 4 2 2 7 7 7 5 4 5 7 8 8 8 9 10 8 9 7 9 10 11 9 8 7 7
15 15 15 13 14 14 13 11 11 9 10 10 9 10 9 8 8 7 7 7 7 7 8 7 7 7 7 7 6 6 6 6 6 6 6 5 5 4 4 5 4 6 5 5 5 4 5 7 7 8 8 8 7 7 6 5 5 6 5 5 4 2 3 2 8 6 6 5 5 6 8 8 7 9 9 9 9 8 9 10 9 10 8 8 8
13 13 11 12 14 12 12 12 11 12 10 11 10 10 9 9 8 8 7 7 7 7 7 7 7 7 7 6 6 7 7 7 6 6 6 6 6 4 3 3 5 4 6 6 6 6 7 7 8 6 6 7 7 6 5 6 5 5 5 4 4 2 1 1 6 7 8 7 5 7 7 7 6 8 9 9 8 8 9 9 8 9 8 8 8
7 9 10 13 13 12 11 11 12 12 12 11 12 11 10 9 8 7 7 7 7 6 7 7 7 7 7 6 6 7 7 7 7 6 7 7 6 5 4 5 5 5 6 8 7 5 7 7 6 6 6 5 4 5 4 1 2 4 3 5 2 2 1 1 2 4 7 6 7 7 8 7 7 7 8 9 9 9 8 9 9 9 9 8 8
6 8 11 13 12 12 12 11 11 14 12 11 12 10 10 9 8 8 7 7 7 6 5 6 7 7 6 7 7 7 7 7 7 7 6 5 6 6 6 6 6 6 5 7 8 7 6 6 7 7 6 5 4 5 3 4 4 3 3 4 4 5 4 2 4 3 4 5 5 5 7 7 6 7 8 9 9 9 9 9 10 9 9 8 5
9 6 5 7 8 7 8 6 8 12 14 12 12 10 10 10 8 8 7 7 6 5 7 6 7 7 7 7 7 7 8 7 7 7 7 6 5 6 6 6 6 4 5 5 7 7 7 7 7 7 6 5 5 4 4 5 1 2 3 3 2 7 2 4 3 4 5 6 5 6 6 7 7 7 8 8 8 8 8 8 8 9 8 8 5
10 11 10 8 10 9 14 12 12 12 11 11 10 10 9 9 8 8 8 8 7 7 7 7 6 7 7 6 7 7 7 7 6 6 7 6 6 6 5 6 5 5 5 5 5 5 6 6 5 5 5 4 4 3 2 1 1 1 3 2 5 7 3 4 5 5 5 5 6 7 6 6 6 7 7 8 8 7 7 7 7 7 7 8 7
10 12 14 11 9 10 9 9 9 11 10 11 10 10 9 9 8 7 7 7 7 7 7 7 6 6 6 6 6 6 6 7 7 7 7 6 6 5 5 5 5 5 4 5 4 4 4 5 4 4 3 3 2 4 3 3 4 2 3 3 2 1 2 3 3 4 5 5 5 6 5 5 6 6 6 8 8 8 9 7 7 7 7 6 7
7 10 11 10 9 9 9 8 7 10 11 11 11 11 10 9 8 8 7 6 5 6 6 6 6 5 6 6 6 6 5 6 8 7 4 7 7 6 6 6 6 5 5 5 5 4 5 5 4 5 9 7 9 8 6 6 4 1 3 1 1 2 3 3 3 4 4 4 5 5 6 7 8 5 6 7 7 7 6 7 7 8 8 7 8
5 8 6 6 9 9 11 9 8 9 10 11 11 10 10 9 8 8 8 6 5 6 6 5 5 5 6 6 6 7 8 6 9 9 8 6 2 6 5 6 6 6 5 5 5 4 4 5 7 8 8 8 7 8 8 8 7 4 4 3 2 2 3 3 3 3 4 5 5 5 6 7 8 7 6 5 4 5 7 6 6 7 6 6 4
4 6 11 9 9 9 10 10 9 9 8 9 10 10 10 9 8 7 7 7 4 4 4 6 5 6 6 6 9 7 6 6 13 12 13 12 8 2 6 4 5 4 4 5 5 5 3 4 6 6 5 4 2 3 3 4 4 5 5 4 4 2 4 4 4 3 5 5 5 6 6 7 7 6 7 8 7 7 7 6 7 6 6 6 9
7 6 8 5 8 10 9 10 10 9 8 9 9 8 8 9 8 8 7 7 5 4 4 5 7 8 10 9 8 7 6 12 12 13 13 13 9 7 2 4 4 3 4 4 4 4 5 4 5 6 5 5 5 6 4 4 2 0 2 4 6 4 1 1 4 4 5 6 7 7 7 6 6 6 7 7 7 6 7 9 10 9 9 10 9
10 11 8 8 9 9 10 11 11 10 10 10 8 8 10 11 9 9 9 7 7 6 5 6 8 8 8 9 8 7 6 11 11 11 11 11 12 9 5 1 3 4 3 4 4 3 3 4 3 4 4 7 3 4 6 7 5 4 2 4 5 6 7 5 5 4 5 6 7 8 8 6 7 7 6 7 6 7 7 8 8 9 9 9 9
11 9 8 9 9 9 8 11 12 12 9 8 8 7 7 9 9 7 8 8 8 8 8 8 8 8 8 8 7 5 5 9 10 9 8 9 10 9 5 5 3 3 2 3 3 4 4 4 4 3 4 6 4 4 6 5 6 6 6 6 7 8 9 10 11 8 5 5 7 8 8 8 8 7 7 6 7 7 8 8 9 10 9 10 8
12 10 10 8 8 8 9 9 10 8 8 8 8 7 8 7 8 5 6 7 7 7 6 7 7 6 6 6 6 5 4 9 8 9 9 9 9 7 5 4 4 4 4 4 5 4 4 4 5 5 2 6 8 6 6 9 10 7 7 8 8 9 7 8 7 7 6 6 7 9 8 8 8 8 7 6 8 8 8 9 8 9 9 2 5
10 11 10 9 8 8 9 9 10 8 7 8 8 8 7 6 6 6 7 6 6 6 6 6 7 6 5 6 5 6 5 10 9 11 11 11 10 5 6 5 5 5 4 4 4 4 5 5 6 7 4 4 3 5 2 2 5 7 8 8 9 8 10 10 4 2 5 6 6 4 3 4 3 3 3 4 5 7 8 8 8 8 9 7 9
12 11 9 9 9 8 9 9 9 9 8 8 8 8 8 6 6 5 7 6 6 6 6 5 6 6 6 5 5 5 6 9 9 11 14 17 11 6 5 6 6 4 4 3 3 4 3 4 4 5 3 1 7 7 6 4 6 9 8 4 5 7 7 7 3 3 3 3 3 2 3 4 3 2 4 4 4 4 6 9 11 9 9 10 9
11 10 9 9 9 10 10 9 8 8 9 9 8 7 7 6 7 5 7 7 7 6 5 6 6 6 6 6 4 3 3 7 16 19 18 17 11 7 5 5 3 4 4 2 3 3 7 9 8 5 3 6 9 11 12 8 7 8 8 8 8 8 9 4 2 3 2 1 2 3 4 6 6 7 7 7 6 4 7 10 10 10 12 11 11
9 8 7 7 8 9 9 10 9 9 10 9 8 8 7 7 6 6 7 7 6 5 5 5 6 6 5 5 5 5 7 11 16 16 16 13 11 6 5 4 2 3 4 3 3 4 4 9 13 10 8 6 10 10 11 10 6 8 9 10 10 11 7 7 5 4 4 5 5 5 5 6 6 6 7 9 8 7 8 10 9 10 12 11 10
10 9 9 9 9 9 9 10 10 9 9 9 8 8 7 7 7 6 6 5 6 5 5 5 6 5 4 5 5 6 7 8 10 13 13 13 13 8 5 5 5 5 4 5 5 5 4 5 8 10 10 10 10 11 11 10 7 8 8 8 10 7 9 9 9 9 6 8 8 7 7 5 5 4 4 3 5 7 8 8 8 8 9 10 11
9 9 9 10 10 11 10 10 10 9 9 8 8 8 7 7 6 6 5 5 5 5 4 4 4 4 3 4 5 5 5 6 7 10 11 12 13 11 6 6 6 6 5 4 4 4 4 4 6 8 10 10 9 9 9 10 7 6 8 8 8 8 10 9 10 12 10 8 8 9 8 8 8 7 7 8 6 6 6 7 6 6 7 9 11
9 9 10 10 10 10 10 9 8 7 7 7 7 7 6 6 5 5 4 4 5 4 4 4 4 4 3 3 4 5 4 6 6 7 8 9 10 11 6 5 3 3 4 4 3 4 4 3 4 4 5 5 6 7 8 6 8 6 9 12 14 13 9 8 9 9 8 9 9 9 9 9 9 8 8 5 6 4 4 3 1 2 2 3 4
9 9 9 9 9 9 9 9 7 6 6 6 6 6 6 5 4 4 4 4 3 4 3 2 3 3 3 4 4 4 6 6 7 6 6 6 6 6 5 4 7 6 5 4 5 5 5 3 6 9 10 9 6 4 6 8 7 8 12 12 12 12 9 7 8 8 8 9 9 10 10 9 9 8 5 5 5 3 3 3 3 2 3 5 5
8 8 8 9 9 8 8 8 7 6 6 6 6 6 5 4 3 3 1 2 3 3 3 3 3 3 3 3 2 3 3 5 6 7 6 7 5 3 2 2 4 4 5 5 6 6 4 7 8 10 10 11 12 12 10 8 8 12 13 12 10 7 6 8 8 7 7 8 9 9 9 7 8 8 7 6 4 5 4 3 3 4 5 5 6
8 9 9 8 8 7 8 7 7 7 6 6 5 5 5 3 3 3 2 2 2 2 2 1 1 1 1 1 2 3 2 3 5 6 7 8 8 8 6 3 6 4 4 4 5 5 8 9 9 9 10 11 12 12 11 13 17 14 14 13 9 6 7 7 8 7 7 8 9 10 11 10 10 5 5 1 6 6 5 4 4 4 6 7 8
8 8 8 8 9 8 7 8 8 7 6 6 6 5 5 5 4 4 3 3 2 2 2 2 2 2 1 2 2 2 2 1 3 5 5 7 6 8 7 8 8 9 9 7 9 9 9 9 11 13 14 13 10 8 8 7 6 10 10 8 6 7 7 7 7 8 9 9 10 11 10 11 8 2 7 7 6 6 5 6 6 5 5 6 6
7 7 7 6 7 8 8 6 7 7 8 6 6 6 6 5 6 6 6 5 4 3 3 3 3 3 2 2 1 1 2 3 5 6 7 7 7 3 4 5 11 10 7 5 6 5 6 6 8 12 13 15 15 15 13 11 11 10 8 7 8 8 7 6 6 8 9 9 10 10 10 5 6 6 5 5 6 5 5 5 4 4 5 4 5
5 5 6 5 5 5 6 4 5 7 8 8 8 7 7 7 7 7 7 6 6 5 5 5 5 5 4 4 4 2 4 8 8 7 7 7 7 7 6 7 6 6 6 8 8 8 9 10 11 10 9 9 9 7 7 8 9 9 7 6 7 9 6 6 1 6 8 9 10 11 5 3 4 4 4 4 5 5 5 4 3 4 4 4 4
5 6 6 6 6 6 6 7 6 6 6 7 8 8 7 7 6 8 9 7 6 6 6 6 6 6 5 5 4 3 4 7 6 6 6 5 4 5 6 6 6 6 6 9 8 8 8 8 7 6 5 4 4 6 6 6 5 7 7 7 8 8 8 6 5 6 7 8 9 9 6 3 4 5 4 5 5 5 5 4 3 4 4 3 4
5 6 7 6 5 5 5 5 5 5 4 5 6 7 7 9 8 6 6 8 8 7 6 5 5 6 5 6 7 6 6 6 9 10 9 8 6 5 6 8 8 7 10 12 7 5 5 4 4 3 3 3 3 4 4 4 4 4 5 7 6 8 8 8 5 5 7 6 7 5 5 2 4 4 4 4 5 5 4 4 3 2 3 3 3
5 5 6 6 6 4 5 4 4 4 4 3 4 4 6 6 8 9 9 5 6 7 7 6 7 8 6 5 6 13 12 10 11 8 8 7 7 7 7 7 7 8 7 6 3 3 5 4 3 3 3 4 3 3 3 3 3 4 5 5 7 7 6 5 3 2 3 4 4 3 3 2 3 4 3 5 6 6 6 5 5 5 4 2 2
5 5 5 5 5 5 4 4 4 4 4 3 3 2 6 6 5 4 4 8 6 6 7 6 4 4 5 4 5 2 8 10 9 8 8 8 9 9 8 8 7 7 6 5 4 5 3 3 3 3 3 3 4 6 6 6 5 5 5 6 5 5 5 5 4 2 2 3 3 3 1 2 3 4 5 5 5 6 6 4 4 3 3 4 3
9 7 5 3 3 3 4 4 3 3 2 2 3 3 3 4 8 6 3 2 2 1 2 7 7 2 3 4 3 2 1 5 6 6 7 8 9 9 8 9 9 4 3 2 4 4 3 3 4 6 6 4 4 5 7 7 6 5 4 5 5 4 4 3 1 4 2 2 2 1 2 3 3 3 3 3 3 4 4 3 2 2 1 0 1
6 6 5 7 5 4 4 3 3 3 3 4 4 4 4 5 4 3 7 6 6 4 3 5 4 10 5 5 5 3 3 5 5 6 8 9 10 11 8 6 7 7 6 4 5 5 5 7 7 8 7 7 6 4 4 5 5 5 5 7 7 6 5 5 5 2 2 1 1 2 3 3 3 3 4 5 4 4 3 2 1 0 1 2 3
6 5 3 6 3 2 3 3 3 2 2 2 2 1 2 1 1 2 2 3 4 4 4 4 4 2 6 5 3 2 2 2 5 7 9 10 12 14 11 2 1 1 1 3 7 7 7 7 7 8 8 7 5 4 5 7 7 6 5 5 7 7 3 3 3 3 2 2 3 3 4 4 3 3 3 3 3 2 2 1 2 2 3 2 2
4 3 5 5 2 3 3 4 4 3 4 2 2 2 2 1 0 2 2 2 3 2 5 7 7 7 11 6 7 5 5 3 3 5 7 9 11 10 4 4 4 5 6 6 6 7 7 7 7 7 7 7 7 5 7 5 7 7 7 7 5 5 5 3 1 0 1 3 4 4 3 3 2 2 2 2 2 3 3 3 2 1 0 1 1
5 5 5 4 3 3 4 3 5 4 4 6 5 2 1 2 3 3 3 2 3 3 4 4 4 6 8 7 9 9 7 6 7 6 6 7 10 6 7 6 6 7 7 7 7 7 7 7 7 7 7 7 7 7 5 6 7 6 6 5 5 3 4 5 4 1 2 5 5 3 3 2 2 1 2 2 2 2 2 2 3 2 2 3 4
1 4 5 6 6 2 1 2 4 5 7 7 1 2 1 1 1 2 3 2 2 1 3 5 3 6 6 6 4 2 4 7 6 3 1 3 6 7 6 6 8 8 7 7 7 7 7 7 7 7 7 7 7 7 6 6 4 4 4 3 3 4 4 5 5 4 5 5 5 4 4 3 4 3 3 3 2 3 2 0 1 2 2 2 3
7 7 5 4 3 7 4 2 2 3 2 1 4 2 2 1 2 3 2 2 1 2 3 4 6 6 6 7 7 7 6 6 6 6 6 6 7 7 7 8 8 7 7 7 7 7 7 7 7 7 7 7 7 6 6 4 4 4 3 3 3 2 2 3 3 3 3 4 4 4 4 4 3 3 2 1 1 1 1 2 4 3 4 6 0
4 6 5 2 3 2 2 1 2 2 2 2 2 2 2 1 2 1 2 2 1 1 2 4 6 6 6 7 7 8 6 6 5 6 6 6 7 7 8 6 7 8 6 7 6 6 6 6 7 7 7 7 7 6 7 5 4 3 3 3 4 5 4 3 4 4 4 4 4 4 3 2 1 0 2 3 0 1 3 2 2 2 5 4 2
3 2 6 5 1 3 2 2 1 4 4 2 1 2 3 1 2 1 2 2 1 2 3 5 5 6 6 8 10 8 6 6 6 6 5 6 5 6 6 6 6 6 7 6 6 6 7 6 5 5 5 5 6 5 5 4 3 4 4 5 5 5 5 5 5 5 5 4 3 2 2 1 2 1 2 2 2 3 1 2 3 2 1 1 2
3 2 4 6 6 3 1 1 1 3 1 2 1 1 2 0 2 3 3 1 2 2 2 4 5 5 7 9 10 11 4 6 6 6 5 6 6 6 5 6 7 7 6 6 7 5 5 5 5 5 6 5 5 4 4 4 4 5 4 4 4 4 4 4 3 3 3 3 3 3 3 3 2 2 2 4 1 1 4 7 4 2 2 3 3
4 3 3 4 3 5 5 1 2 1 2 1 0 1 3 1 3 1 2 3 2 2 2 1 2 3 4 1 7 9 5 5 6 6 6 4 6 4 4 5 5 7 7 7 6 5 5 5 5 5 5 5 5 4 4 4 4 4 4 4 4 4 4 4 4 3 4 4 4 3 3 2 2 2 2 2 2 4 3 2 3 2 1 0 2
3 2 2 2 4 3 3 3 2 1 3 5 3 1 1 2 1 1 2 3 2 2 1 1 1 1 1 3 5 2 5 5 6 5 6 5 4 4 4 4 5 5 6 4 4 4 5 5 4 4 4 5 5 4 4 4 4 5 4 5 5 5 5 4 4 4 3 3 2 2 3 3 2 2 2 3 3 1 3 2 3 4 4 5 3
4 3 2 3 2 5 3 1 1 2 3 2 4 3 3 2 1 1 1 2 2 2 1 1 1 1 2 2 4 4 4 5 4 4 3 3 3 3 4 3 4 4 4 4 4 4 4 4 3 3 3 5 4 4 4 4 4 4 4 4 4 4 4 4 3 3 3 2 2 2 2 2 2 2 3 3 1 3 3 3 5 6 3 3 2
4 3 2 3 0 1 4 1 2 1 3 2 2 2 2 1 1 2 2 2 2 2 2 1 1 1 2 2 2 3 3 4 4 4 4 3 3 3 3 3 3 3 4 4 4 4 4 4 4 4 4 4 4 4 4 4 4 4 4 4 4 4 3 3 3 2 2 2 1 1 1 1 2 2 4 3 3 3 2 3 3 3 3 3 2
4 4 2 3 3 1 5 2 2 2 1 2 2 1 2 2 2 3 3 2 2 2 2 2 1 2 1 1 2 3 3 2 2 2 2 4 3 4 2 3 2 3 3 3 3 3 3 4 3 3 4 4 3 4 3 3 3 3 3 4 4 5 5 6 3 0 0 0 2 3 4 3 2 2 1 2 2 2 2 1 2 1 1 2 2
4 4 3 2 3 2 4 2 6 3 2 2 2 3 3 3 3 3 4 4 4 3 3 3 3 3 2 2 2 2 2 1 2 3 2 3 3 2 2 2 2 2 2 3 3 3 3 3 3 3 3 3 3 3 3 3 3 3 3 4 5 5 8 10 3 5 6 6 5 4 3 4 5 5 5 3 3 2 3 2 3 2 2 2 3
5 4 4 3 3 4 3 2 3 3 4 4 4 4 4 4 4 4 4 4 3 3 3 2 2 2 2 2 2 2 2 2 2 2 2 3 2 2 2 2 2 2 2 3 3 3 3 3 3 3 3 3 4 4 4 5 5 4 4 4 6 11 10 10 7 6 10 6 1 2 3 4 4 3 2 3 4 5 5 3 3 3 2 2 2
5 5 4 4 4 4 4 3 2 4 4 4 5 5 4 4 4 4 4 4 4 3 2 2 2 2 2 2 1 1 1 2 2 2 2 2 2 2 2 2 2 2 2 2 2 2 2 3 3 3 4 4 4 5 5 5 5 5 4 5 9 10 10 10 8 10 8 5 7 2 3 3 3 4 4 4 2 2 3 3 4 4 4 3 4
6 6 5 5 5 5 4 4 4 4 3 4 5 5 5 4 4 4 4 4 4 3 3 3 3 1 1 2 2 2 2 2 3 2 3 3 2 2 2 1 1 1 2 2 2 2 2 2 3 3 4 4 5 5 5 5 5 5 6 8 9 9 10 10 7 9 12 8 6 5 4 3 3 4 4 4 5 5 6 5 3 3 4 4 3
Wind_Direction
172 173 171 168 164 164 165 163 158 168 174 168 170 174 174 168 170 164 163 174 162 173 173 162 165 161 158 161 166 173 164 171 161 161 155 163 152 144 169 157 145 131 130 148 165 158 154 146 148 146 154 150 140 144 155 147 117 121 117 123 129 181 192 125 134 141 145 143 158 160 157 168 168 166 160 157 165 187 185 141 150 176 186 176 174
172 173 171 165 159 160 165 156 156 165 165 162 171 173 178 167 168 175 171 178 171 178 172 165 165 174 157 167 162 168 173 165 164 165 160 148 145 174 163 174 142 121 140 132 130 152 155 142 139 143 153 134 138 152 150 167 154 144 145 148 146 163 333 177 133 148 148 165 178 168 156 190 176 176 164 163 175 191 184 152 171 193 201 190 179
170 168 162 157 154 156 160 161 160 160 164 163 175 174 176 164 170 179 172 179 181 183 170 166 168 174 163 162 167 166 178 164 169 168 148 154 165 168 170 140 122 130 135 135 144 139 142 129 131 140 133 142 180 143 156 177 185 139 137 147 123 148 203 41 144 155 165 173 183 182 166 187 215 178 176 169 181 197 201 173 186 198 218 203 201
150 159 156 155 155 157 164 169 161 163 167 168 173 176 171 163 171 170 181 180 178 187 161 173 168 172 166 164 161 172 170 167 171 166 163 168 166 162 166 153 163 166 149 146 136 135 132 139 129 134 142 153 132 125 184 184 283 136 157 122 136 164 36 338 267 151 170 173 188 204 166 176 222 202 185 174 185 200 215 193 193 203 218 201 225
150 169 155 150 159 163 177 167 165 162 170 163 168 170 162 163 166 171 170 180 171 177 158 177 172 169 167 170 160 173 165 173 173 170 164 167 171 166 174 173 175 172 161 138 143 144 145 150 147 139 146 138 142 162 147 183 192 132 207 139 167 151 162 226 221 218 175 206 183 233 165 182 204 222 195 190 187 203 213 216 198 212 211 209 224
136 132 110 142 149 163 148 166 177 172 166 157 164 167 163 162 168 158 165 176 163 173 177 176 177 168 170 178 162 165 173 177 174 167 160 167 159 171 172 170 175 151 129 147 147 147 160 149 146 156 152 155 176 167 153 190 237 210 196 254 208 144 170 162 226 235 209 192 190 222 223 180 201 226 211 203 203 200 213 220 221 211 214 211 155
136 150 168 142 148 157 159 183 171 167 155 156 160 161 157 154 161 156 169 168 165 179 178 168 183 169 174 174 165 167 167 174 168 166 163 162 161 160 154 169 156 149 170 155 140 147 154 145 155 159 165 171 144 140 156 89 140 294 7 223 288 113 179 204 204 195 216 215 196 213 229 187 212 209 222 222 213 222 216 232 238 225 212 217 210
130 142 151 155 152 157 145 153 154 155 155 151 159 156 157 157 159 154 156 156 165 177 175 172 172 180 167 166 164 161 147 174 166 169 169 154 160 156 162 164 161 155 166 150 140 159 148 143 153 170 167 114 99 152 157 196 162 247 160 282 336 126 244 203 232 228 191 211 216 209 226 221 209 242 238 223 225 216 230 244 236 226 236 218 222
147 146 146 146 151 151 139 136 148 150 150 154 163 161 160 162 155 152 147 146 174 170 172 170 174 177 144 167 144 151 138 55 33 7 341 162 160 169 162 174 159 163 157 149 153 161 159 148 170 85 67 67 63 49 39 47 19 291 154 223 243 250 248 263 211 228 230 228 231 227 223 222 241 214 204 257 243 239 228 234 249 254 246 241 212
160 153 137 152 151 148 137 130 137 145 152 153 157 154 155 152 150 147 142 142 160 158 168 159 170 160 153 152 125 64 46 46 6 5 21 1 269 172 177 168 177 163 186 152 176 180 163 152 79 81 73 67 69 57 32 33 50 41 359 23 312 286 266 264 271 260 262 250 239 244 236 233 232 237 242 238 270 249 241 241 243 237 236 240 257
61 153 154 161 140 143 138 138 125 125 133 145 147 153 152 152 150 146 149 137 138 134 153 154 158 166 163 101 69 69 50 21 359 11 6 10 354 345 169 170 190 172 188 174 174 190 185 182 143 112 118 114 100 114 80 18 30 29 28 40 49 14 324 289 267 285 275 274 265 243 245 249 242 241 239 238 223 237 255 258 257 263 264 246 240
56 56 77 80 120 128 137 135 127 118 126 127 125 112 116 121 116 107 97 103 115 129 117 77 50 56 59 67 62 51 61 18 7 9 6 3 5 343 256 167 190 198 192 208 200 193 200 200 183 166 187 194 195 171 193 184 203 77 358 347 337 332 147 278 297 283 277 275 273 272 275 270 270 257 255 257 262 246 220 235 249 253 248 249 250
56 47 54 91 90 83 88 94 97 96 94 81 72 97 108 111 103 85 78 75 80 88 97 82 69 62 61 59 54 46 42 14 5 7 6 3 357 344 311 299 209 209 215 230 245 239 222 216 223 214 191 132 234 209 198 195 199 219 268 262 251 242 260 223 212 252 295 289 284 276 269 278 276 268 274 286 296 283 276 256 249 251 259 262 261
46 37 36 57 73 74 78 104 106 99 92 92 84 69 67 72 65 67 73 67 65 68 73 72 69 68 71 72 63 47 33 12 3 9 10 356 357 335 301 299 290 275 258 252 265 278 278 271 247 202 245 216 229 283 268 247 209 209 222 226 230 222 226 236 227 225 219 251 269 271 276 283 276 284 290 285 279 270 267 261 257 254 247 253 270
45 39 34 37 64 73 75 82 86 80 75 79 77 69 68 66 64 51 63 67 70 73 69 71 67 60 74 87 90 64 47 7 15 16 14 0 355 319 276 279 261 262 265 268 259 266 264 267 270 278 273 49 43 21 355 335 307 270 241 227 235 244 235 224 225 221 214 223 239 256 260 261 274 278 295 300 281 276 272 279 289 285 281 299 107
45 41 37 21 42 64 76 82 88 84 80 84 87 87 73 81 89 81 77 73 73 69 56 72 93 85 72 78 75 68 40 14 21 31 19 9 345 301 278 262 261 264 260 246 249 249 254 251 260 260 49 74 205 143 132 257 246 270 276 310 324 327 310 324 344 280 247 243 249 283 330 46 38 346 346 335 320 300 295 282 270 263 261 240 254
52 43 33 36 38 47 63 70 67 71 69 71 78 86 97 102 101 92 83 84 84 81 82 73 88 101 95 75 70 61 42 9 14 36 30 16 4 320 297 278 262 255 256 270 267 267 295 334 349 335 356 63 43 24 17 322 267 274 282 262 268 276 254 239 259 38 0 346 8 356 337 330 315 283 283 248 244 304 292 279 262 259 259 256 250
48 48 39 33 41 42 44 56 65 71 73 76 71 62 62 58 66 91 107 110 101 97 97 94 88 85 83 88 101 125 109 29 28 32 29 14 351 311 299 288 315 308 300 304 314 321 45 25 13 339 9 65 31 27 12 342 283 279 276 277 261 259 266 251 190 224 120 56 351 303 293 294 297 292 267 257 243 224 240 251 257 254 255 253 259
51 53 60 61 56 57 59 60 59 62 71 71 65 64 61 63 66 70 75 77 68 60 73 80 77 74 73 78 58 68 58 39 31 32 26 17 359 327 345 333 326 14 351 338 354 342 91 62 43 47 65 60 49 36 26 9 322 309 299 282 270 257 271 295 248 225 219 219 219 220 232 221 236 248 256 221 222 222 232 247 259 255 255 253 256
55 55 56 58 62 66 68 70 65 61 61 60 63 69 70 69 65 65 70 79 86 87 64 70 70 51 42 47 39 40 63 57 41 33 29 18 8 352 13 12 17 5 358 352 330 339 354 95 71 57 59 48 40 31 26 23 360 331 325 304 290 306 7 332 334 335 293 251 245 212 214 208 201 211 244 183 218 221 231 238 247 256 262 261 254
52 52 55 58 60 60 59 61 67 69 67 65 63 62 61 61 66 68 70 71 84 80 80 86 96 98 99 92 75 46 42 73 64 50 38 27 15 9 38 19 4 349 331 327 334 332 339 34 85 40 31 29 23 11 13 357 353 318 291 277 287 335 327 318 320 330 309 293 281 267 259 262 254 250 258 264 249 230 222 234 245 252 265 264 260
50 54 56 57 58 59 58 58 60 62 68 80 83 78 73 69 57 66 77 91 96 111 141 168 137 130 128 119 123 125 88 70 96 72 62 49 35 20 26 54 9 308 308 308 335 317 303 321 93 54 24 17 9 348 339 327 325 303 283 290 314 329 331 312 299 288 286 283 273 268 258 250 250 245 239 232 254 240 238 228 276 329 350 344 328
49 53 59 63 64 66 64 64 62 59 63 65 78 91 102 104 112 112 122 122 128 139 150 151 156 140 160 157 145 136 132 117 103 109 103 79 67 54 23 12 334 305 315 304 286 278 266 204 91 22 359 348 337 322 278 286 278 263 271 282 286 304 307 295 293 293 282 274 271 270 271 264 260 255 246 198 190 162 227 219 175 131 76 49 35
47 52 56 61 63 62 68 69 67 68 64 72 72 68 70 87 91 97 119 170 150 150 145 168 174 163 167 145 139 121 121 122 100 97 124 139 146 150 186 255 313 339 331 301 304 300 322 6 353 347 334 329 318 314 306 273 265 267 268 269 277 283 282 279 273 271 276 277 272 266 260 259 255 250 234 217 180 155 190 165 150 131 106 94 74
44 44 43 46 53 68 67 60 56 56 63 58 64 70 70 57 85 91 84 69 53 65 88 75 48 61 90 94 116 121 106 120 126 146 162 161 188 192 201 187 245 239 275 283 295 336 358 332 330 316 304 291 277 269 264 253 246 245 245 250 255 257 254 253 256 250 250 252 253 255 251 247 248 254 319 265 118 133 155 162 151 124 93 79 70
42 48 50 48 45 43 52 66 66 61 60 65 58 51 49 50 45 45 48 57 49 54 56 44 65 66 38 86 81 85 115 132 126 133 169 177 193 202 220 203 224 225 236 298 322 312 297 284 274 268 266 258 251 245 249 259 216 219 225 220 232 245 248 255 259 257 257 261 258 260 265 265 277 70 127 131 150 159 165 161 155 125 99 91 75
47 42 44 55 62 55 46 45 60 52 45 50 57 52 46 50 50 35 28 24 27 43 40 33 36 41 55 56 51 99 134 94 59 39 22 9 2 331 217 210 217 234 241 228 236 266 273 263 276 275 276 278 274 274 276 277 276 256 232 215 233 237 237 249 279 300 297 288 281 280 284 338 67 123 126 146 151 142 118 124 121 121 116 112 111
58 58 62 58 54 70 73 44 59 71 57 48 42 37 38 37 51 48 27 17 8 16 25 38 33 27 14 19 9 12 63 59 37 20 15 2 350 340 344 346 356 354 2 3 339 316 304 283 262 249 247 240 244 240 234 233 236 240 249 239 211 220 208 111 208 267 280 288 291 293 318 121 188 160 150 135 127 122 125 135 160 164 182 165 134
45 51 50 56 58 51 57 58 62 74 87 80 66 49 41 35 39 68 55 34 30 14 4 27 26 8 357 20 11 18 27 52 40 28 22 9 340 334 335 343 344 326 1 3 330 306 304 304 311 305 300 301 301 300 308 311 312 309 306 303 298 303 302 284 304 314 317 314 312 317 303 241 197 205 169 142 137 141 161 162 136 143 141 158 147
66 49 36 33 43 53 53 58 57 63 66 87 99 86 42 45 51 45 67 86 75 59 36 37 14 354 356 29 36 7 18 31 23 17 5 353 344 312 300 296 297 296 309 314 304 297 293 296 290 303 320 319 320 314 317 321 319 319 316 331 317 296 288 290 294 320 358 347 353 335 335 314 222 204 192 143 127 103 79 96 123 106 106 79 83
51 60 57 47 357 11 53 45 55 66 72 72 106 119 118 78 54 80 97 77 64 67 65 63 50 30 13 357 48 85 66 42 16 7 352 343 318 311 298 299 290 289 306 320 288 263 280 293 315 325 315 323 324 314 310 305 314 319 310 307 303 304 309 319 337 343 343 331 323 347 347 12 41 57 82 85 96 98 86 63 56 38 46 50 76
38 48 53 52 26 14 63 51 40 49 45 50 46 142 142 122 98 48 72 104 101 97 101 77 59 81 31 37 353 101 48 25 358 352 343 331 325 317 312 296 283 266 269 233 270 282 300 320 318 311 317 317 330 342 343 342 339 329 323 318 317 322 343 354 0 317 326 320 309 323 37 49 64 65 63 61 64 69 73 59 51 44 19 356 355
15 13 34 34 100 59 45 39 38 42 60 66 80 33 11 140 138 131 123 127 103 120 156 149 149 162 120 100 116 92 298 321 338 335 335 324 317 315 307 291 275 261 117 224 247 282 318 320 339 338 334 340 345 351 345 331 322 320 318 317 316 312 26 56 339 330 5 26 2 21 78 83 89 88 80 77 78 82 75 79 87 115 152 69 7
50 22 4 339 337 36 44 45 26 49 62 40 20 22 44 10 11 129 149 142 158 167 208 246 180 135 108 72 74 64 24 353 344 334 335 331 323 311 300 276 263 236 213 294 329 346 346 351 339 333 335 344 339 343 339 325 319 316 321 313 307 318 352 350 351 43 60 65 120 106 96 86 77 83 76 69 67 74 76 82 46 158 192 195 205
115 107 69 317 2 47 53 45 38 15 45 59 102 112 94 85 127 7 31 159 175 176 147 138 217 206 103 139 95 93 26 322 327 330 331 330 329 322 315 2 37 20 224 351 11 356 351 342 352 350 342 342 346 339 324 319 323 327 320 339 342 339 350 343 10 28 65 87 87 90 84 81 74 74 87 89 97 103 124 176 211 237 241 233 219
133 153 164 198 2 47 27 44 26 359 332 71 94 77 28 8 327 125 124 349 351 86 135 141 139 148 132 120 151 169 202 238 273 293 290 301 313 316 28 26 26 22 16 21 15 10 351 1 353 350 345 339 336 330 330 336 331 326 343 344 341 342 348 343 23 68 139 122 113 111 117 112 107 98 109 136 178 195 190 193 186 133 227 236 224
7 25 11 19 33 12 6 64 71 4 333 306 297 63 43 63 339 352 46 42 58 356 91 57 119 139 172 147 170 188 208 224 226 228 260 279 302 2 35 25 18 19 10 15 10 2 3 3 1 352 351 340 335 334 340 329 332 336 346 343 343 358 32 28 31 20 123 105 95 73 67 68 87 104 138 155 134 75 35 28 30 15 23 345 304
36 10 0 4 344 348 349 3 55 239 250 267 296 61 10 350 85 82 71 59 323 350 5 99 75 33 22 19 353 60 185 217 233 266 288 349 16 31 27 26 19 18 9 9 6 358 2 4 0 353 343 343 343 335 333 337 340 350 347 4 32 61 75 74 60 59 70 81 85 87 85 76 79 64 39 43 50 71 49 21 176 181 247 253 244
94 71 60 46 355 330 348 36 13 341 350 330 75 44 2 27 24 36 46 64 53 40 42 38 43 32 21 16 17 9 46 37 33 28 26 27 24 24 27 21 22 19 8 8 3 3 7 4 357 350 347 352 351 346 342 350 4 23 8 29 55 122 152 94 64 64 76 78 72 69 64 63 56 52 48 77 115 133 205 240 226 207 220 214 130
114 128 105 311 247 233 324 344 297 253 91 3 41 48 123 114 121 117 79 76 49 54 53 49 36 42 26 18 14 347 359 47 34 31 26 24 27 25 27 25 20 21 12 11 8 11 6 9 1 6 5 4 1 356 354 23 33 38 51 63 58 43 52 83 94 86 77 75 75 74 64 51 36 228 229 245 170 151 226 232 18 17 3 29 72
322 110 134 152 79 292 162 265 340 3 347 65 87 142 75 42 29 32 93 100 98 83 55 56 52 45 29 350 324 332 348 43 35 36 30 29 32 29 28 28 24 22 18 17 16 14 12 13 14 15 19 15 9 5 19 32 56 74 74 72 73 76 73 66 64 59 55 53 69 77 98 121 113 99 76 45 284 260 193 201 201 102 67 14 329
305 322 156 155 182 209 293 279 103 129 239 78 256 119 156 219 26 41 64 68 65 48 90 100 96 82 34 339 332 328 4 54 38 42 37 33 36 35 32 28 28 27 24 25 23 21 16 19 19 22 24 24 27 27 21 38 42 49 52 60 68 78 77 77 83 100 108 99 72 58 55 56 71 74 40 347 338 1 22 22 29 42 27 13 45
311 318 342 314 311 358 341 17 329 296 78 66 102 25 336 7 121 132 61 46 52 50 78 76 87 112 107 23 323 311 51 58 63 45 44 39 42 40 39 37 30 31 33 37 36 30 30 27 27 24 29 25 19 32 51 39 31 38 44 45 43 52 54 50 52 55 63 60 56 39 40 62 55 48 26 358 358 32 39 350 340 23 67 48 18
248 258 309 316 288 198 185 334 8 0 73 50 358 273 219 147 122 62 103 122 114 117 90 83 73 28 77 194 216 58 57 44 50 53 51 47 38 35 37 37 29 28 36 38 39 40 43 42 41 35 32 34 34 37 37 30 29 45 47 52 54 46 46 43 43 43 49 61 68 73 71 55 37 35 33 8 0 20 68 356 35 20 2 32 13
273 289 259 249 289 336 1 92 299 107 70 178 207 172 205 207 134 117 114 122 130 116 115 119 122 104 75 52 44 56 68 63 51 53 52 53 49 40 37 34 35 31 35 37 31 19 36 51 50 40 40 53 47 52 41 35 32 41 39 35 48 48 42 41 44 41 32 36 60 56 41 26 25 36 26 343 351 31 39 25 43 344 4 51 11
256 255 268 287 352 231 253 92 57 126 168 203 206 204 193 153 140 156 148 127 120 140 139 127 100 68 69 66 71 65 60 65 65 55 47 44 55 56 47 40 45 50 43 39 43 41 25 14 27 28 23 39 38 37 43 39 33 35 43 47 33 30 31 33 40 42 42 31 71 84 70 57 16 40 35 340 37 25 33 25 36 30 339 340 42
252 264 249 256 261 289 349 336 155 139 159 203 218 213 204 173 159 130 119 85 130 154 158 145 139 111 93 88 76 70 67 73 67 75 75 72 51 52 53 42 51 57 56 52 40 51 56 44 36 36 27 20 39 37 45 49 43 41 37 32 24 9 7 340 313 81 91 322 321 19 9 8 114 148 124 350 0 50 4 6 4 339 355 352 336
235 248 250 241 251 208 190 194 93 117 164 186 204 217 202 203 183 175 145 154 186 168 164 164 132 121 126 117 95 83 72 79 86 69 67 75 89 77 57 43 30 55 75 67 56 49 50 51 50 40 39 32 28 38 40 50 56 48 48 48 29 5 344 335 358 23 354 2 29 356 5 9 22 18 26 10 13 3 329 9 346 2 3 6 356
230 240 247 239 252 245 238 222 142 176 176 173 177 206 199 204 180 174 170 169 162 159 168 146 145 143 134 112 123 108 89 60 57 85 87 86 81 87 80 50 32 35 51 60 66 65 69 57 45 47 41 46 43 45 47 36 39 47 39 39 11 355 352 355 2 359 336 309 288 20 21 22 6 357 83 27 8 355 346 351 339 347 322 343 338
239 242 243 238 236 255 257 246 228 211 176 176 178 184 188 196 185 187 176 169 157 162 154 156 173 168 149 138 106 99 107 84 78 79 88 62 65 77 84 83 55 43 51 61 58 60 69 80 66 55 51 52 56 51 52 48 40 33 30 18 6 7 6 355 1 2 347 349 348 8 41 12 359 351 349 349 359 330 315 6 1 337 328 317 297
229 238 237 231 228 229 231 236 233 256 197 182 196 189 178 198 189 179 184 185 176 165 171 175 184 190 196 158 178 171 122 96 90 84 77 87 102 83 76 79 87 101 88 59 72 79 62 54 67 70 65 58 56 59 53 48 42 35 27 19 21 15 12 9 2 345 345 342 320 345 23 359 354 351 351 354 346 359 8 344 328 321 311 313 326